This demonstration page uses our WeatherBlox Daily Observations layout. Learn more.

Left ArrowRight Arrow

31.31129, -92.44514

Hourly Observations for December 3, 2020

Temp ( °F °C ) Dew Point ( °F °C ) Humidity (%) Winds ( mph kmh ) Pressure ( in mb ) Visibility ( mi km ) Precip ( " mm )
12:53 am 00:53 Cloudy 51 10.6 38 3.3 61 61 E 5 7 30.12 1020 10 16 0.00 0.00
1:53 am 01:53 Cloudy with Light Rain 50 10 41 5 71 71 E 9 15 30.10 1019 10 16 0.00 0.00
2:53 am 02:53 Cloudy 51 10.6 43 6.1 74 74 WNW 5 7 30.10 1019 10 16 0.00 0.00
3:25 am 03:25 Cloudy 49 9.4 43 6.1 80 80 NW 6 9 30.09 1019 10 16 0.00 0.00
4:53 am 04:53 Cloudy 46 7.8 43 6.1 89 89 NNW 8 13 30.12 1020 10 16 0.01 0.25
5:53 am 05:53 Cloudy with Light Rain 46 7.8 42 5.6 86 86 N 8 13 30.13 1020 10 16 0.00 0.00
6:24 am 06:24 Cloudy with Heavy Rain 45 7.2 43 6.1 93 93 N 6 9 30.13 1020 2 3 0.11 2.79
6:51 am 06:51 Cloudy with Rain 45 7 43 6 93 93 N 5 7 30.14 1021 3 5 0.35 8.89
6:53 am 06:53 Cloudy with Rain 44 6.7 43 6.1 96 96 N 6 9 30.16 1021 3 5 0.35 8.89
7:12 am 07:12 Cloudy 45 7.2 43 6.1 93 93 NNE 6 9 30.14 1021 10 16 0.01 0.25
7:53 am 07:53 Cloudy with Light Rain 45 7.2 44 6.7 97 97 E 3 6 30.16 1021 7 11 0.01 0.25
8:22 am 08:22 Cloudy 45 7.2 44 6.7 97 97 NNW 5 7 30.16 1021 10 16 0.00 0.00
8:53 am 08:53 Cloudy 46 7.8 44 6.7 93 93 WNW 7 11 30.19 1022 6 10 0.00 0.00
9:14 am 09:14 Cloudy with Light Rain 46 7.8 45 7.2 96 96 NW 6 9 30.18 1022 4 6 0.01 0.25
9:53 am 09:53 Cloudy 47 8.3 45 7.2 93 93 NW 7 11 30.19 1022 10 16 0.02 0.51
10:53 am 10:53 Cloudy 50 10 47 8.3 89 89 N 7 11 30.17 1022 10 16 0.00 0.00
11:53 am 11:53 Cloudy 49 9.4 47 8.3 93 93 NNW 9 15 30.16 1021 10 16 0.00 0.00
12:53 pm 12:53 Cloudy 50 10 47 8.3 89 89 NW 9 15 30.15 1021 10 16 0.00 0.00
1:07 pm 13:07 Cloudy with Heavy Rain 49 9.4 47 8.3 93 93 NNW 9 15 30.13 1020 2 3 0.03 0.76
1:16 pm 13:16 Cloudy with Light Rain 49 9.4 48 8.9 97 97 NW 6 9 30.14 1021 3 5 0.04 1.02
1:26 pm 13:26 Cloudy with Heavy Rain 49 9.4 48 8.9 97 97 NW 6 9 30.14 1021 2 3 0.06 1.52
1:36 pm 13:36 Cloudy with Light Rain 49 9.4 48 8.9 97 97 NW 6 9 30.14 1021 3 5 0.07 1.78
1:53 pm 13:53 Cloudy 50 10 48 8.9 93 93 NW 5 7 30.14 1021 8 13 0.07 1.78
2:49 pm 14:49 Cloudy 50 10 48 9 94 94 NNW 7 11 30.12 1020 9 14 0.00 0.00
2:53 pm 14:53 Cloudy 50 10 48 8.9 93 93 NW 6 9 30.14 1021 9 14 0.00 0.00
3:17 pm 15:17 Cloudy 50 10 48 8.9 93 93 NNW 6 9 30.12 1020 8 13 0.00 0.00
3:53 pm 15:53 Cloudy with Light Rain 50 10 47 8.3 89 89 NNW 8 13 30.13 1020 7 11 0.00 0.00
4:15 pm 16:15 Cloudy with Rain 49 9.4 47 8.3 93 93 WNW 8 13 30.14 1021 2 3 0.03 0.76
4:25 pm 16:25 Cloudy with Light Rain 49 9.4 47 8.3 93 93 NW 5 7 30.14 1021 4 6 0.03 0.76
4:53 pm 16:53 Cloudy 49 9.4 47 8.3 93 93 NNW 7 11 30.14 1021 6 10 0.04 1.02
5:00 pm 17:00 Cloudy 49 9.4 47 8.3 93 93 NNW 6 9 30.13 1020 7 11 0.00 0.00
5:53 pm 17:53 Cloudy 48 8.9 47 8.3 96 96 NNW 6 9 30.13 1020 7 11 0.00 0.00
6:07 pm 18:07 Cloudy 48 8.9 47 8.3 96 96 NNW 8 13 30.13 1020 7 11 0.00 0.00
6:53 pm 18:53 Cloudy with Light Rain 48 8.9 46 7.8 93 93 NNW 7 11 30.16 1022 6 10 0.00 0.00
7:31 pm 19:31 Cloudy with Light Rain 47 8.3 46 7.8 97 97 NW 10 17 30.16 1021 6 10 0.02 0.51
7:42 pm 19:42 Cloudy with Light Rain 47 8.3 46 7.8 97 97 NNW 9 15 30.15 1021 5 8 0.02 0.51
7:53 pm 19:53 Cloudy with Light Rain 46 7.8 44 6.7 93 93 NNW 15 24 30.17 1022 6 10 0.02 0.51
8:01 pm 20:01 Cloudy with Light Rain 46 7.8 44 6.7 93 93 NW 14 22 30.16 1021 6 10 0.01 0.25
8:28 pm 20:28 Cloudy 45 7.2 43 6.1 93 93 NNW 8 13 30.17 1022 9 14 0.01 0.25
8:53 pm 20:53 Cloudy 45 7.2 43 6.1 93 93 NNW 10 17 30.18 1022 9 14 0.01 0.25
9:27 pm 21:27 Cloudy 45 7.2 42 5.6 90 90 NNW 8 13 30.17 1022 10 16 0.00 0.00
9:53 pm 21:53 Cloudy 45 7.2 42 5.6 90 90 NNW 10 17 30.19 1022 10 16 0.00 0.00
10:25 pm 22:25 Cloudy 45 7.2 42 5.6 90 90 NNW 8 13 30.18 1022 10 16 0.00 0.00
10:53 pm 22:53 Cloudy 45 7.2 42 5.6 90 90 NNW 9 15 30.20 1023 10 16 0.00 0.00
11:53 pm 23:53 Cloudy 44 6.7 42 5.6 93 93 NNW 9 15 30.19 1023 9 14 0.00 0.00

Powered by AerisWeather